Weather History for KDNL - April, 2014

Change the Weather History Date:

Friday, April 18, 2014

  Actual Average Record
Temperature  
Mean Temperature 56 °F -  
Max Temperature 59 °F 74 °F 88 °F (2002)
Min Temperature 52 °F 53 °F 36 °F (1997)
Degree Days  
Heating Degree Days 9    
Month to date heating degree days 54  
Growing Degree Days 5 (Base 50)    
Moisture  
Dew Point 49 °F    
Average Humidity 83    
Maximum Humidity 96    
Minimum Humidity 51    
Precipitation  
Precipitation 1.63 in - - ()
Month to date precipitation 3.81  
Year to date precipitation 12.78  
Sea Level Pressure  
Sea Level Pressure 30.18 in    
Wind  
Wind Speed 12 mph (NNE)    
Max Wind Speed 23 mph    
Max Gust Speed 31 mph    
Visibility 6 miles    
Events Rain    
Averages and records for this station are not official NWS values.
T = Trace of Precipitation, MM = Missing Value Source: NWS Daily Summary

Daily Weather History Graph

Daily Weather History Graph

Search for Another Location

Airport or City:

Trip Planner

Search our weather history database for the weather conditions in past years. The results will help you decide how hot, cold, wet, or windy it might be!

Date:

Astronomy

Apr. 18, 2014 Rise Set
Actual Time 6:54 AM EDT 8:01 PM EDT
Civil Twilight 6:28 AM EDT 8:26 PM EDT
Nautical Twilight 5:58 AM EDT 8:57 PM EDT
Astronomical Twilight 5:26 AM EDT 9:29 PM EDT
Moon 11:38 PM EDT (4/18) 9:21 AM EDT (4/18)
Length of Visible Light 13h 58m
Length of Day
13h 07m
Waning Gibbous, 87% of the Moon is Illuminated
Apr 18
Waning Gibbous
Apr 22
Last Quarter
Apr 29
New
May 6
First Quarter
May 14
Full

Hourly Weather History & Observations

Time (EDT) Temp. Dew Point Humidity Pressure Visibility Wind Dir Wind Speed Gust Speed Precip Events Conditions
12:53 AM 59.0 °F 41.0 °F 51% 30.34 in 10.0 mi NE 10.4 mph - N/A   Clear
1:53 AM 57.0 °F 42.1 °F 57% 30.32 in 10.0 mi ENE 9.2 mph - N/A   Clear
2:53 AM 57.0 °F 43.0 °F 59% 30.31 in 10.0 mi ENE 8.1 mph - N/A   Clear
3:53 AM 55.9 °F 45.0 °F 67% 30.29 in 10.0 mi ENE 8.1 mph - N/A   Clear
4:53 AM 55.0 °F 46.0 °F 72% 30.28 in 10.0 mi ENE 11.5 mph - N/A   Clear
5:53 AM 55.0 °F 46.9 °F 74% 30.28 in 10.0 mi ENE 10.4 mph - N/A   Clear
6:53 AM 54.0 °F 46.0 °F 75% 30.29 in 10.0 mi NE 9.2 mph - N/A   Clear
8:53 AM 55.0 °F 45.0 °F 69% 30.31 in 10.0 mi NNE 10.4 mph - N/A   Clear
9:53 AM 55.9 °F 45.0 °F 67% 30.32 in 10.0 mi NE 11.5 mph - N/A   Clear
10:53 AM 57.9 °F 45.0 °F 62% 30.32 in 10.0 mi NNE 13.8 mph - N/A   Overcast
11:53 AM 57.9 °F 46.0 °F 65% 30.30 in 10.0 mi NNE 15.0 mph - N/A   Mostly Cloudy
12:53 PM 55.9 °F 48.9 °F 77% 30.27 in 10.0 mi NNE 12.7 mph - 0.01 in Rain Light Rain
1:53 PM 55.9 °F 50.0 °F 80% 30.23 in 8.0 mi NNE 9.2 mph - 0.02 in Rain Light Rain
2:53 PM 55.0 °F 50.0 °F 83% 30.22 in 3.0 mi NNE 12.7 mph - 0.09 in Rain Rain
3:53 PM 54.0 °F 51.1 °F 90% 30.18 in 5.0 mi North 10.4 mph - 0.10 in Rain Rain
4:53 PM 54.0 °F 52.0 °F 93% 30.17 in 6.0 mi North 11.5 mph - 0.07 in Rain Light Rain
5:23 PM 54.0 °F 52.0 °F 93% 30.17 in 4.0 mi NNE 12.7 mph - 0.03 in Rain Rain
5:53 PM 54.0 °F 52.0 °F 93% 30.14 in 4.0 mi NNE 11.5 mph - 0.08 in Rain Rain
6:53 PM 54.0 °F 52.0 °F 93% 30.14 in 2.5 mi North 11.5 mph - 0.17 in Rain Heavy Rain
7:06 PM 53.1 °F 51.1 °F 93% 30.13 in 3.0 mi North 15.0 mph - 0.06 in Rain Heavy Rain
7:19 PM 53.1 °F 51.1 °F 93% 30.13 in 3.0 mi NNE 12.7 mph 23.0 mph 0.11 in Rain Heavy Rain
7:30 PM 53.1 °F 51.1 °F 93% 30.15 in 3.0 mi NE 8.1 mph 19.6 mph 0.15 in Rain Rain
7:42 PM 53.1 °F 51.1 °F 93% 30.14 in 3.0 mi NNE 11.5 mph - 0.19 in Rain Rain
8:04 PM 53.1 °F 50.0 °F 89% 30.13 in 5.0 mi NE 16.1 mph 23.0 mph 0.03 in Rain Rain
8:40 PM 52.0 °F 50.0 °F 93% 30.12 in 6.0 mi NNE 16.1 mph - 0.11 in Rain Rain
8:53 PM 52.0 °F 50.0 °F 93% 30.11 in 7.0 mi NNE 17.3 mph 25.3 mph 0.12 in Rain Light Rain
9:12 PM 52.0 °F 50.0 °F 93% 30.11 in 5.0 mi NE 18.4 mph 26.5 mph 0.04 in Rain Light Rain
9:19 PM 52.0 °F 50.0 °F 93% 30.09 in 5.0 mi NNE 16.1 mph 27.6 mph 0.06 in Rain Rain
9:34 PM 52.0 °F 50.0 °F 93% 30.09 in 5.0 mi NE 18.4 mph 29.9 mph 0.09 in Rain Rain
9:49 PM 51.8 °F 50.0 °F 94% 30.08 in 5.0 mi NNE 17.3 mph 29.9 mph 0.13 in Rain Rain
9:53 PM 52.0 °F 50.0 °F 93% 30.07 in 5.0 mi NNE 19.6 mph 31.1 mph 0.14 in Rain Rain
10:32 PM 53.1 °F 50.0 °F 89% 30.05 in 6.0 mi NNE 16.1 mph 28.8 mph 0.09 in Rain Rain
11:24 PM 53.1 °F 51.1 °F 93% 30.06 in 3.0 mi North 12.7 mph 20.7 mph 0.09 in Rain Rain
11:32 PM 53.1 °F 51.1 °F 93% 30.06 in 2.5 mi NNE 12.7 mph - 0.14 in Rain Heavy Rain
11:36 PM 53.1 °F 51.1 °F 93% 30.06 in 3.0 mi NNE 12.7 mph - 0.15 in Rain Heavy Rain
11:53 PM 53.1 °F 51.1 °F 93% 30.05 in 2.5 mi North 11.5 mph 19.6 mph 0.26 in Rain Heavy Rain